STARLINK-5896, 55930

Orbit data source: Space-Track

STARLINK-5896, 55930 is a payload satellite owned by SpaceX/Seattle (US) in LEO that was launched on Fri, 17 Mar 2023 UTC via an FALCON 9 launch vehicle from the Air Force Western Test Range (AFWTR). Payload-class satellites include a variety of spacecraft equipped with specific instruments for various scientific and technological missions. These include communications satellites like Starlink; space stations such as the ISS; scientific satellites like the Hubble; Earth observation satellites from companies like Planet Labs, Umbra, and HawkEye 360; GPS; miniature CubeSats for education and research; and military/defense satellites.

Loading next visibility...
Identifier
55930, 2023-037S
Orbit
LEO
Country
Flag of USUS
Related business
Manufacturer
SpaceX/Seattle
Mission
Operational Commercial Communications
Bus & Motor
STARLINK, Unknown motor
Mass
305 kg wet, ~290 kg dry
Launch date (UTC)
2023-03-17 (3 years ago)
Launch vehicle
FALCON 9
Launch site
Air Force Western Test Range (AFWTR)
Object type
Payload
Rocket body
Debris
Shape & HBR
Box + 1 Pan, 10.1 m
Radar Cross Section
11.087 m², Large (>1 m²)

Expand to show TLE details & history
Last TLE update: 18 hours ago

TLE from 18 hours ago
0 STARLINK-5896
1 55930U 23037S   25348.85148211  .00001039  00000-0  94841-4 0  9992
2 55930  69.9994 138.3116 0003505 268.7483  91.3274 14.98345774151278
Epoch: 2025-12-14T20:26Z
TLE epoch observation values (Epoch: 2025-12-14T20:26:08.054Z)
Latitude
-0.00006°
Longitude
108.01955°
Altitude
574.488 km
Speed
7.574 km/s
True Right ascension
09h 13m 14s
True Declination
0° 00' 00"
Sunlit
Object was in full shadow at epoch
Visualization orbit readout
Latitude
Unknown
Longitude
Unknown
Altitude
Unknown
Speed
Unknown
Apparent Right ascension
Unknown
Apparent Declination
Unknown
Sunlit
N/A
Visualization observer readout
Local Sidereal Time
13:18:48
Azimuth
Unknown
Elevation
Unknown
Doppler factor
Unknown
Orbital elements
Apogee altitude
572.391 km
Perigee altitude
567.52 km
Semi-major axis
6,948.092 km
Eccentricity
0.00035
Inclination
69.9994°
RAAN
138.3116°
Arg. of periapsis
268.7483°
True anomaly
91.36755°
Mean anomaly
91.3274°
Eccentric anomaly
91.34748°
Mean motion
3.74753 °/min
Orbital period
96.06 mins
BSTAR
0.000094841
Loading maneuver chart data...
Computing Atmospheric mass density...
Loading historical data...
Loading historical data...
Loading historical data...
Loading historical data...
Loading historical data...
Loading historical data...
Loading historical data...

Documentation

Showing up to 5 results
|